Track STARLINK-1705 now! 10-day predictions STARLINK-1705 is classified as:
1 46579U 20070AZ 22186.15104423 -.00000036 00000-0 16520-4 0 9997 2 46579 53.0557 72.9981 0001723 73.9170 286.2009 15.06403236 97197